Track STARLINK-2288 now! 10-day predictions STARLINK-2288 is classified as:
1 48034U 21024BK 21109.91667824 .00049288 00000-0 35325-3 0 9996 2 48034 53.0489 72.1997 0001080 78.5020 292.0285 15.73215357 1778